"Period start","avg(HW err(1)/warn(2) (#))","avg(Visibility (m))","avg(Weather code (#))","avg(Precip intensity (mm/h))","min(HW err(1)/warn(2) (#))","max(HW err(1)/warn(2) (#))","std(HW err(1)/warn(2) (#))","med(HW err(1)/warn(2) (#))","min(Visibility (m))","max(Visibility (m))","std(Visibility (m))","med(Visibility (m))","min(Weather code (#))","max(Weather code (#))","std(Weather code (#))","med(Weather code (#))","min(Precip intensity (mm/h))","max(Precip intensity (mm/h))","std(Precip intensity (mm/h))","med(Precip intensity (mm/h))"
2014-06-05 00:00:00,2,3994,10,0.00,2,2,0,2,763,13202,3947,2524,10,10,0,10,0.00,0.00,0.00,0.00
2014-06-05 00:10:00,2,5482,10,0.00,2,2,0,2,721,18066,5382,2738,10,10,0,10,0.00,0.00,0.00,0.00
2014-06-05 00:20:00,2,10477,10,0.00,2,2,0,2,1237,28230,10600,4814,10,10,0,10,0.00,0.00,0.00,0.00
2014-06-05 00:30:00,2,7372,10,0.00,2,2,0,2,1348,39556,10964,2862,10,10,0,10,0.00,0.00,0.00,0.00
2014-06-05 00:40:00,2,15278,10,0.00,2,2,0,2,5011,26664,6670,15670,10,10,0,10,0.00,0.00,0.00,0.00
2014-06-05 00:50:00,2,18430,1,0.00,2,2,0,2,4417,45280,13524,12606,0,10,3,0,0.00,0.00,0.00,0.00
2014-06-05 01:00:00,2,25947,9,0.00,2,2,0,2,4447,50000,19003,18557,0,10,3,10,0.00,0.00,0.00,0.00
2014-06-05 01:10:00,2,7068,5,0.00,2,2,0,2,814,30715,10107,2308,0,10,5,5,0.00,0.00,0.00,0.00
2014-06-05 01:20:00,2,13994,10,0.00,2,2,0,2,735,46479,15355,7960,10,10,0,10,0.00,0.00,0.00,0.00
2014-06-05 01:30:00,2,12763,6,0.00,2,2,0,2,3581,45944,11718,9120,0,10,5,10,0.00,0.00,0.00,0.00
2014-06-05 01:40:00,2,33253,6,0.00,2,2,0,2,4531,50000,15872,39846,0,10,5,10,0.00,0.00,0.00,0.00
2014-06-05 01:50:00,2,17822,2,0.00,2,2,0,2,3861,45782,15897,10933,0,10,4,0,0.00,0.00,0.00,0.00
2014-06-05 02:00:00,2,6134,10,0.00,2,2,0,2,3581,14209,2937,5650,10,10,0,10,0.00,0.00,0.00,0.00
2014-06-05 02:10:00,2,8954,10,0.00,2,2,0,2,1847,21395,6320,6588,10,10,0,10,0.00,0.00,0.00,0.00
2014-06-05 02:20:00,2,4095,10,0.00,2,2,0,2,2074,7734,1880,3397,10,10,0,10,0.00,0.00,0.00,0.00
2014-06-05 02:30:00,2,8003,10,0.00,2,2,0,2,3285,17823,4204,7196,10,10,0,10,0.00,0.00,0.00,0.00
2014-06-05 02:40:00,2,8877,10,0.00,2,2,0,2,1933,20742,6099,8036,10,10,0,10,0.00,0.00,0.00,0.00
2014-06-05 02:50:00,2,20207,9,0.00,2,2,0,2,4699,40711,12313,20644,0,10,3,10,0.00,0.00,0.00,0.00
2014-06-05 03:00:00,2,39964,0,0.00,2,2,0,2,20357,49595,8575,41631,0,0,0,0,0.00,0.00,0.00,0.00
2014-06-05 03:10:00,2,7370,7,0.00,2,2,0,2,1563,17822,5590,5492,0,10,5,10,0.00,0.00,0.00,0.00
2014-06-05 03:20:00,2,6290,10,0.00,2,2,0,2,1792,12310,3268,5602,10,10,0,10,0.00,0.00,0.00,0.00
2014-06-05 03:30:00,2,5268,10,0.00,2,2,0,2,1412,10356,2795,5890,10,10,0,10,0.00,0.00,0.00,0.00
2014-06-05 03:40:00,2,32538,7,0.00,2,2,0,2,14381,50000,10201,31866,0,10,5,10,0.00,0.00,0.00,0.00
2014-06-05 03:50:00,2,28730,0,0.00,2,2,0,2,6517,50000,15819,31356,0,0,0,0,0.00,0.00,0.00,0.00
2014-06-05 04:00:00,2,38824,0,0.00,2,2,0,2,28265,50000,6487,40572,0,0,0,0,0.00,0.00,0.00,0.00
2014-06-05 04:10:00,2,9231,4,0.00,2,2,0,2,3318,36908,9517,5588,0,10,5,0,0.00,0.00,0.00,0.00
2014-06-05 04:20:00,2,4089,10,0.00,2,2,0,2,2527,7362,1517,3674,10,10,0,10,0.00,0.00,0.00,0.00
2014-06-05 04:30:00,2,8004,10,0.00,2,2,0,2,4779,12818,2709,7774,10,10,0,10,0.00,0.00,0.00,0.00
2014-06-05 04:40:00,2,8754,10,0.00,2,2,0,2,1511,39042,10488,4818,10,10,0,10,0.00,0.00,0.00,0.00
2014-06-05 04:50:00,2,18948,7,0.00,2,2,0,2,3768,35435,13316,17494,0,10,5,10,0.00,0.00,0.00,0.00
2014-06-05 05:00:00,2,1828,10,0.00,2,2,0,2,1226,3618,636,1670,10,10,0,10,0.00,0.00,0.00,0.00
2014-06-05 05:10:00,2,3586,10,0.00,2,2,0,2,983,8540,2240,3284,10,10,0,10,0.00,0.00,0.00,0.00
2014-06-05 05:20:00,2,1497,10,0.00,2,2,0,2,1042,2262,357,1426,10,10,0,10,0.00,0.00,0.00,0.00
2014-06-05 05:30:00,2,1926,10,0.00,2,2,0,2,826,4772,1425,1414,10,10,0,10,0.00,0.00,0.00,0.00
2014-06-05 05:40:00,2,1775,10,0.00,2,2,0,2,1141,2259,362,1854,10,10,0,10,0.00,0.00,0.00,0.00
2014-06-05 05:50:00,2,2579,10,0.00,2,2,0,2,1130,6718,1531,2046,10,10,0,10,0.00,0.00,0.00,0.00
2014-06-05 06:00:00,2,4264,10,0.00,2,2,0,2,3380,5917,765,3980,10,10,0,10,0.00,0.00,0.00,0.00
2014-06-05 06:10:00,2,2685,10,0.00,2,2,0,2,1678,3274,460,2723,10,10,0,10,0.00,0.00,0.00,0.00
2014-06-05 06:20:00,2,964,12,0.00,2,2,0,2,609,1383,302,934,10,33,7,10,0.00,0.00,0.00,0.00
2014-06-05 06:30:00,2,534,45,0.11,2,2,0,2,337,813,131,484,33,61,11,41,0.00,0.20,0.08,0.12
2014-06-05 06:40:00,2,594,59,0.24,2,2,0,2,319,902,174,567,51,61,4,61,0.15,0.35,0.07,0.23
2014-06-05 06:50:00,2,480,57,0.22,2,2,0,2,348,899,151,418,41,61,8,61,0.15,0.30,0.05,0.20
2014-06-05 07:00:00,2,484,47,0.13,2,2,0,2,303,634,116,500,41,61,9,41,0.05,0.25,0.06,0.10
2014-06-05 07:10:00,2,604,41,0.09,2,2,0,2,252,829,183,544,41,41,0,41,0.00,0.15,0.05,0.10
2014-06-05 07:20:00,2,572,51,0.06,2,2,0,2,391,797,112,554,41,61,10,51,0.00,0.10,0.04,0.05
2014-06-05 07:30:00,2,496,57,0.03,2,2,0,2,446,600,44,484,41,61,8,61,0.00,0.05,0.03,0.03
2014-06-05 07:40:00,2,618,44,0.03,2,2,0,2,364,1310,272,540,33,61,12,41,0.00,0.10,0.03,0.00
2014-06-05 07:50:00,2,732,33,0.00,2,2,0,2,532,986,147,718,33,33,0,33,0.00,0.00,0.00,0.00
2014-06-05 08:00:00,2,540,33,0.00,2,2,0,2,326,926,175,547,33,33,0,33,0.00,0.00,0.00,0.00
2014-06-05 08:10:00,2,445,49,0.07,2,2,0,2,316,637,90,426,33,71,12,46,0.00,0.30,0.08,0.05
2014-06-05 08:20:00,2,400,71,0.10,2,2,0,2,353,434,26,400,71,71,0,71,0.00,0.15,0.05,0.10
2014-06-05 08:30:00,2,564,73,0.08,2,2,0,2,386,863,133,568,71,77,3,71,0.00,0.25,0.08,0.05
2014-06-05 08:40:00,2,799,66,0.09,2,2,0,2,532,987,128,834,61,71,5,66,0.00,0.25,0.09,0.05
2014-06-05 08:50:00,2,729,45,0.11,2,2,0,2,534,934,128,732,41,61,8,41,0.05,0.20,0.05,0.10
2014-06-05 09:00:00,2,515,47,0.07,2,2,0,2,420,624,73,506,41,61,9,41,0.05,0.15,0.04,0.05
2014-06-05 09:10:00,2,605,41,0.10,2,2,0,2,437,871,149,552,41,41,0,41,0.00,0.20,0.05,0.10
2014-06-05 09:20:00,2,466,49,0.23,2,2,0,2,369,556,69,476,41,61,10,41,0.05,0.35,0.08,0.23
2014-06-05 09:30:00,2,561,51,0.18,2,2,0,2,406,698,95,586,41,61,10,51,0.10,0.30,0.06,0.20
2014-06-05 09:40:00,2,501,35,0.02,2,2,0,2,312,825,138,500,34,41,3,34,0.00,0.10,0.04,0.00
2014-06-05 09:50:00,2,385,34,0.00,2,2,0,2,284,682,105,369,34,34,0,34,0.00,0.00,0.00,0.00
2014-06-05 10:00:00,2,729,34,0.00,2,2,0,2,328,1591,412,630,34,34,0,34,0.00,0.00,0.00,0.00
2014-06-05 10:10:00,2,409,32,0.00,2,2,0,2,270,716,121,388,30,33,2,32,0.00,0.00,0.00,0.00
2014-06-05 10:20:00,2,1353,33,0.00,2,2,0,2,676,2906,710,1048,33,33,0,33,0.00,0.00,0.00,0.00
2014-06-05 10:30:00,2,847,29,0.00,2,2,0,2,719,1066,126,791,20,32,3,30,0.00,0.00,0.00,0.00
2014-06-05 10:40:00,2,626,32,0.00,2,2,0,2,439,900,118,609,32,32,0,32,0.00,0.00,0.00,0.00
2014-06-05 10:50:00,2,411,45,0.04,2,2,0,2,359,472,36,408,32,77,16,41,0.00,0.10,0.03,0.05
2014-06-05 11:00:00,2,363,77,0.08,2,2,0,2,332,393,25,364,77,77,0,77,0.05,0.15,0.04,0.05
2014-06-05 11:10:00,2,443,77,0.04,2,2,0,2,345,624,74,428,77,77,0,77,0.00,0.10,0.03,0.05
2014-06-05 11:20:00,2,612,51,0.02,2,2,0,2,427,1176,206,573,34,77,21,34,0.00,0.05,0.02,0.00
2014-06-05 11:30:00,2,1269,33,0.00,2,2,0,2,651,2048,413,1142,33,34,0,33,0.00,0.00,0.00,0.00
2014-06-05 11:40:00,2,1816,21,0.00,2,2,0,2,1128,4208,827,1645,20,33,4,20,0.00,0.00,0.00,0.00
2014-06-05 11:50:00,2,1401,20,0.00,2,2,0,2,790,2266,519,1394,20,20,0,20,0.00,0.00,0.00,0.00
2014-06-05 12:00:00,2,1488,20,0.00,2,2,0,2,1082,2351,364,1326,20,20,0,20,0.00,0.00,0.00,0.00
2014-06-05 12:10:00,2,833,25,0.00,2,2,0,2,524,1657,301,788,20,32,6,20,0.00,0.00,0.00,0.00
2014-06-05 12:20:00,2,1235,32,0.00,2,2,0,2,797,1666,250,1277,30,33,1,33,0.00,0.00,0.00,0.00
2014-06-05 12:30:00,2,1513,21,0.00,2,2,0,2,712,2241,536,1489,20,30,3,20,0.00,0.00,0.00,0.00
2014-06-05 12:40:00,2,1100,20,0.00,2,2,0,2,627,1776,349,1021,20,20,0,20,0.00,0.00,0.00,0.00
2014-06-05 12:50:00,2,555,33,0.00,2,2,0,2,403,713,99,562,30,34,1,33,0.00,0.00,0.00,0.00
2014-06-05 13:00:00,2,611,34,0.00,2,2,0,2,404,800,113,596,34,34,0,34,0.00,0.00,0.00,0.00
2014-06-05 13:10:00,2,482,34,0.00,2,2,0,2,392,646,69,466,34,34,0,34,0.00,0.00,0.00,0.00
2014-06-05 13:20:00,2,834,34,0.00,2,2,0,2,562,1110,162,840,34,34,0,34,0.00,0.00,0.00,0.00
2014-06-05 13:30:00,2,694,34,0.00,2,2,0,2,465,1451,314,558,33,34,0,34,0.00,0.00,0.00,0.00
2014-06-05 13:40:00,2,749,33,0.00,2,2,0,2,511,999,149,726,33,33,0,33,0.00,0.00,0.00,0.00
2014-06-05 13:50:00,2,777,32,0.00,2,2,0,2,403,1662,385,651,32,32,0,32,0.00,0.00,0.00,0.00
2014-06-05 14:00:00,2,337,56,0.06,2,2,0,2,287,425,40,321,32,77,21,58,0.00,0.10,0.04,0.05
2014-06-05 14:10:00,2,389,77,0.09,2,2,0,2,263,583,98,341,77,77,0,77,0.05,0.15,0.03,0.10
2014-06-05 14:20:00,2,667,60,0.06,2,2,0,2,316,1478,371,506,34,77,21,77,0.00,0.15,0.06,0.05
2014-06-05 14:30:00,2,554,34,0.00,2,2,0,2,339,757,131,596,30,34,1,34,0.00,0.00,0.00,0.00
2014-06-05 14:40:00,2,533,32,0.00,2,2,0,2,324,894,194,454,30,33,1,33,0.00,0.00,0.00,0.00
2014-06-05 14:50:00,2,646,33,0.00,2,2,0,2,525,730,57,635,30,33,1,33,0.00,0.00,0.00,0.00
2014-06-05 15:00:00,2,545,32,0.00,2,2,0,2,326,780,123,556,32,33,0,32,0.00,0.00,0.00,0.00
2014-06-05 15:10:00,2,613,33,0.00,2,2,0,2,382,1120,214,543,33,33,0,33,0.00,0.00,0.00,0.00
2014-06-05 15:20:00,2,569,33,0.00,2,2,0,2,421,706,105,542,33,33,0,33,0.00,0.00,0.00,0.00
2014-06-05 15:30:00,2,653,33,0.00,2,2,0,2,380,1157,247,590,33,33,0,33,0.00,0.00,0.00,0.00
2014-06-05 15:40:00,2,468,33,0.00,2,2,0,2,363,547,57,466,33,33,0,33,0.00,0.00,0.00,0.00
2014-06-05 15:50:00,2,375,33,0.00,2,2,0,2,294,478,68,366,33,33,0,33,0.00,0.00,0.00,0.00
2014-06-05 16:00:00,2,841,32,0.00,2,2,0,2,316,2141,561,616,30,33,1,33,0.00,0.00,0.00,0.00
2014-06-05 16:10:00,2,1361,32,0.00,2,2,0,2,475,3937,1303,690,30,33,1,33,0.00,0.00,0.00,0.00
2014-06-05 16:20:00,2,416,33,0.00,2,2,0,2,350,624,74,402,33,33,0,33,0.00,0.00,0.00,0.00
2014-06-05 16:30:00,2,428,33,0.00,2,2,0,2,330,513,65,418,33,33,0,33,0.00,0.00,0.00,0.00
2014-06-05 16:40:00,2,365,33,0.00,2,2,0,2,297,488,55,357,33,33,0,33,0.00,0.00,0.00,0.00
2014-06-05 16:50:00,2,552,32,0.00,2,2,0,2,394,821,120,546,30,34,2,34,0.00,0.00,0.00,0.00
2014-06-05 17:00:00,2,961,34,0.00,2,2,0,2,558,1492,293,850,33,34,0,34,0.00,0.00,0.00,0.00
2014-06-05 17:10:00,2,385,33,0.00,2,2,0,2,303,519,78,348,32,33,0,33,0.00,0.00,0.00,0.00
2014-06-05 17:20:00,2,452,33,0.00,2,2,0,2,297,660,112,428,33,33,0,33,0.00,0.00,0.00,0.00
2014-06-05 17:30:00,2,583,33,0.00,2,2,0,2,464,650,58,582,33,33,0,33,0.00,0.00,0.00,0.00
2014-06-05 17:40:00,2,434,33,0.00,2,2,0,2,386,587,58,412,33,34,0,33,0.00,0.00,0.00,0.00
2014-06-05 17:50:00,2,452,34,0.00,2,2,0,2,399,532,44,446,34,34,0,34,0.00,0.00,0.00,0.00
2014-06-05 18:00:00,2,636,33,0.00,2,2,0,2,375,1681,451,417,33,34,0,33,0.00,0.00,0.00,0.00
2014-06-05 18:10:00,2,3988,29,0.00,2,2,0,2,2509,6767,1390,3438,20,33,6,32,0.00,0.00,0.00,0.00
2014-06-05 18:20:00,1,4080,20,0.00,0,2,1,0,1892,6154,1367,4121,20,20,0,20,0.00,0.00,0.00,0.00
2014-06-05 18:30:00,0,2623,20,0.00,0,0,0,0,795,6358,2069,1370,20,20,0,20,0.00,0.00,0.00,0.00
2014-06-05 18:40:00,0,5248,20,0.00,0,0,0,0,2520,8327,1961,5438,20,20,0,20,0.00,0.00,0.00,0.00
2014-06-05 18:50:00,0,4548,20,0.00,0,0,0,0,3056,6120,1099,4335,20,20,0,20,0.00,0.00,0.00,0.00
2014-06-05 19:00:00,0,2064,20,0.00,0,0,0,0,925,4686,1099,1698,20,20,0,20,0.00,0.00,0.00,0.00
2014-06-05 19:10:00,0,1642,17,0.00,0,0,0,0,999,2378,528,1410,10,20,5,20,0.00,0.00,0.00,0.00
2014-06-05 19:20:00,0,2696,10,0.00,0,0,0,0,1413,3840,690,2656,10,10,0,10,0.00,0.00,0.00,0.00
2014-06-05 19:30:00,0,2493,10,0.00,0,0,0,0,1841,3756,597,2315,10,10,0,10,0.00,0.00,0.00,0.00
2014-06-05 19:40:00,0,2157,10,0.00,0,0,0,0,935,3264,757,2196,10,10,0,10,0.00,0.00,0.00,0.00
2014-06-05 19:50:00,0,2451,10,0.00,0,0,0,0,1374,4596,945,2354,10,10,0,10,0.00,0.00,0.00,0.00
2014-06-05 20:00:00,0,1680,10,0.00,0,0,0,0,1242,2285,307,1674,10,10,0,10,0.00,0.00,0.00,0.00
2014-06-05 20:10:00,0,5161,10,0.00,0,0,0,0,1325,14017,3436,4840,10,10,0,10,0.00,0.00,0.00,0.00
2014-06-05 20:20:00,0,23412,8,0.00,0,0,0,0,3031,41143,10001,22155,0,10,4,10,0.00,0.00,0.00,0.00
2014-06-05 20:30:00,0,3008,10,0.00,0,0,0,0,672,7557,2005,2602,10,10,0,10,0.00,0.00,0.00,0.00
2014-06-05 20:40:00,0,3317,10,0.00,0,0,0,0,1047,7154,2115,2456,10,10,0,10,0.00,0.00,0.00,0.00
2014-06-05 20:50:00,1,1496,10,0.00,0,2,1,2,832,2607,518,1435,10,10,0,10,0.00,0.00,0.00,0.00
2014-06-05 21:00:00,2,1255,10,0.00,2,2,0,2,1028,1665,178,1242,10,10,0,10,0.00,0.00,0.00,0.00
2014-06-05 21:10:00,2,1702,10,0.00,2,2,0,2,1239,2105,245,1706,10,10,0,10,0.00,0.00,0.00,0.00
2014-06-05 21:20:00,2,2484,10,0.00,2,2,0,2,1725,3904,656,2340,10,10,0,10,0.00,0.00,0.00,0.00
2014-06-05 21:30:00,2,2316,10,0.00,2,2,0,2,1556,3883,681,2218,10,10,0,10,0.00,0.00,0.00,0.00
2014-06-05 21:40:00,2,1577,10,0.00,2,2,0,2,869,2984,675,1320,10,10,0,10,0.00,0.00,0.00,0.00
2014-06-05 21:50:00,2,1430,10,0.00,2,2,0,2,864,2323,451,1326,10,10,0,10,0.00,0.00,0.00,0.00
2014-06-05 22:00:00,2,968,14,0.00,2,2,0,2,695,1302,165,926,10,30,8,10,0.00,0.00,0.00,0.00
2014-06-05 22:10:00,2,1016,30,0.00,2,2,0,2,846,1209,120,1021,30,30,0,30,0.00,0.00,0.00,0.00
2014-06-05 22:20:00,2,1112,31,0.00,2,2,0,2,750,1820,398,870,30,34,2,30,0.00,0.00,0.00,0.00
2014-06-05 22:30:00,2,1497,25,0.00,2,2,0,2,1111,2297,329,1415,20,30,5,25,0.00,0.00,0.00,0.00
2014-06-05 22:40:00,2,2064,20,0.00,2,2,0,2,1215,3338,570,1835,20,20,0,20,0.00,0.00,0.00,0.00
2014-06-05 22:50:00,1,15355,20,0.00,0,2,1,2,3988,29285,9521,13242,20,20,0,20,0.00,0.00,0.00,0.00
2014-06-05 23:00:00,0,32471,20,0.00,0,2,1,0,21989,44505,6754,33509,20,20,0,20,0.00,0.00,0.00,0.00
2014-06-05 23:10:00,2,27837,20,0.00,2,2,0,2,24381,34676,3224,28046,20,20,0,20,0.00,0.00,0.00,0.00
2014-06-05 23:20:00,2,36569,20,0.00,2,2,0,2,28731,50000,6453,36392,20,20,0,20,0.00,0.00,0.00,0.00
2014-06-05 23:30:00,2,25495,10,0.00,2,2,0,2,12754,32775,5226,25338,0,20,10,10,0.00,0.00,0.00,0.00
2014-06-05 23:40:00,2,40121,0,0.00,2,2,0,2,27912,50000,7176,43654,0,0,0,0,0.00,0.00,0.00,0.00
2014-06-05 23:50:00,2,44487,0,0.00,2,2,0,2,38302,50000,3802,45087,0,0,0,0,0.00,0.00,0.00,0.00
